Content
SEND FEEDBACK

Daily
Averages
Monthly
Summary
France

PORT-EN-BESSIN-HUPPAIN, FRANCE


Home > Europe > France
Elevation: 239 feet     Latitude: 49 21N     Longitude: 000 46W

WEATHER
 
SELECT A DAY
Number of Records: 225,428;   Date Range: 7/1/96 - 11/24/14
 
SHARE

PRINT THIS DATA

[ ← Previous Day ]
WEATHER ALMANAC - APRIL 20, 2013
[ Next Day → ]
[ °C ]   °F
Weather ElementAverageHighLow
Temperature43.5 °F48.2 °F (12:00 pm)35.6 °F (6:30 am)
Dewpoint36.4 °F39.2 °F (1:30 am)33.8 °F (2:00 pm)
Humidity76.9 %100 % (5:30 am)48 % (2:00 pm)
Barometer30.44 in30.50 in (8:00 am)30.36 in (7:30 pm)
Wind Speed7.6 mph13.8 mph (1:00 pm)
Weather ElementAverage
Visibility6.5 mi
Wind DirectionESE (126.9 °)

Weather ElementTotal
Precipitation---
Heating Degree Days23.1 (Base 65)
Averaged from 51 records on April 20, 2013
WEATHER CONDITIONS BREAKOUT
WIND DIRECTION BREAKOUT
WEATHER BY HOUR - APRIL 20, 2013
[ °C ]   °F
Local TimeTemperatureDewpointHumidityBarometerVisibilityWind DirectionWind SpeedGust SpeedPrecipitationEventsConditions
12:30 AM42.8 °F37.4 °F81 %30.48 in6.2 miVariable3.5 mphScattered Clouds
1:00 AM41.0 °F35.6 °F81 %30.45 in6.2 miNNW (330°)4.6 mphPartly Cloudy
1:30 AM42.8 °F39.2 °F87 %30.45 in6.2 miNNW (330°)1.2 mph
2:00 AM40.0 °F37.0 °F83 %30.48 in11.0 miNNW (330°)3.5 mphClear
2:00 AM39.2 °F35.6 °F87 %30.45 in6.2 miNW (320°)3.5 mph
2:30 AM39.2 °F37.4 °F93 %30.45 in6.2 miNW (320°)2.3 mph
3:00 AM39.2 °F37.4 °F93 %30.45 in6.2 miWNW (300°)3.5 mph
3:30 AM39.2 °F37.4 °F93 %30.48 in6.2 miNW (320°)3.5 mph
4:00 AM39.2 °F37.4 °F93 %30.48 in6.2 miVariable2.3 mph
4:30 AM39.2 °F37.4 °F93 %30.48 in5.6 miNNW (340°)2.3 mph
5:00 AM37.4 °F35.6 °F93 %30.48 in3.1 miNW (320°)2.3 mphMist
5:30 AM37.4 °F37.4 °F100 %30.45 in1.1 miNNW (330°)3.5 mphMist
6:00 AM37.4 °F35.6 °F93 %30.48 inNNW (330°)3.5 mphMist
6:30 AM35.6 °F35.6 °F100 %30.48 in4.3 miNNW (340°)2.3 mph
7:00 AM35.6 °F35.6 °F100 %30.48 in6.2 miNNW (340°)4.6 mph
7:30 AM37.4 °F35.6 °F93 %30.48 in6.2 miVariable3.5 mph
8:00 AM38.0 °F36.0 °F88 %30.50 in12.0 miNorth (350°)2.3 mphScattered Clouds
8:00 AM37.4 °F35.6 °F93 %30.48 in6.2 miVariable2.3 mph
8:30 AM41.0 °F39.2 °F93 %30.48 in6.2 miVariable1.2 mphMostly Cloudy
9:00 AM44.6 °F37.4 °F76 %30.48 in6.2 miENE (70°)11.5 mphOvercast
9:30 AM44.6 °F37.4 °F76 %30.48 in6.2 miENE (70°)10.4 mphMostly Cloudy
10:00 AM44.6 °F37.4 °F76 %30.48 in6.2 miENE (60°)11.5 mphScattered Clouds
10:30 AM46.4 °F37.4 °F71 %30.48 in6.2 miNE (40°)9.2 mphPartly Cloudy
11:00 AM46.4 °F35.6 °F66 %30.48 in6.2 miNE (40°)9.2 mphMostly Cloudy
11:30 AM46.4 °F35.6 °F66 %30.48 in6.2 miNE (50°)9.2 mphScattered Clouds
12:00 PM48.2 °F35.6 °F62 %30.48 in6.2 miNNE (30°)10.4 mphPartly Cloudy
12:30 PM48.2 °F35.6 °F62 %30.48 in6.2 miNorth (10°)11.5 mphPartly Cloudy
1:00 PM48.2 °F35.6 °F62 %30.48 in6.2 miNNE (20°)13.8 mphMostly Cloudy
1:30 PM48.2 °F35.6 °F62 %30.45 in6.2 miNNE (30°)11.5 mphMostly Cloudy
2:00 PM48.0 °F35.0 °F48 %30.47 in16.0 miNE (40°)11.5 mphScattered Clouds
2:00 PM48.2 °F33.8 °F58 %30.45 in6.2 miNE (40°)11.5 mphPartly Cloudy
2:30 PM48.2 °F35.6 °F62 %30.45 in6.2 miNNE (20°)13.8 mph
3:00 PM48.2 °F33.8 °F58 %30.45 in6.2 miNorth (10°)13.8 mph
3:30 PM48.2 °F35.6 °F62 %30.42 in6.2 miNNE (20°)12.7 mph
4:00 PM48.2 °F35.6 °F62 %30.42 in6.2 miNNE (20°)12.7 mph
4:30 PM48.2 °F35.6 °F62 %30.42 in6.2 miNNE (20°)12.7 mph
5:00 PM48.2 °F35.6 °F62 %30.39 in6.2 miNNE (20°)12.7 mph
5:30 PM48.2 °F35.6 °F62 %30.39 in6.2 miNNE (20°)12.7 mph
6:00 PM48.2 °F37.4 °F66 %30.39 in6.2 miNNE (20°)12.7 mph
6:30 PM48.2 °F37.4 °F66 %30.39 in6.2 miNorth (10°)11.5 mph
7:00 PM46.4 °F35.6 °F66 %30.39 in6.2 miNNE (20°)12.7 mph
7:30 PM46.4 °F35.6 °F66 %30.36 in6.2 miNNE (20°)11.5 mph
8:00 PM46.0 °F36.0 °F60 %30.38 in12.0 miNorth (10°)9.2 mphClear
8:00 PM46.4 °F37.4 °F71 %30.36 in6.2 miNorth (10°)9.2 mph
8:30 PM44.6 °F37.4 °F76 %30.36 in6.2 miNNE (20°)9.2 mph
9:00 PM44.6 °F37.4 °F76 %30.36 in6.2 miNNE (20°)9.2 mph
9:30 PM42.8 °F37.4 °F81 %30.36 in6.2 miNorth (360°)5.8 mph
10:00 PM42.8 °F37.4 °F81 %30.36 in6.2 miNorth (360°)4.6 mph
10:30 PM41.0 °F37.4 °F87 %30.36 in6.2 miNorth (360°)4.6 mph
11:00 PM41.0 °F37.4 °F87 %30.36 in6.2 miNNE (20°)4.6 mph
11:30 PM41.0 °F37.4 °F87 %30.36 in6.2 miNorth (10°)4.6 mph
Hourly data recorded from LFRK, located miles away from Port-en-Bessin-Huppain, France







STORIES FROM OUR PARTNERS